Location: Peebles
(55.6412°N, 3.1714°W)
Time: 22:04:55
(UTC+00:00)

deb Agena D - Pass Details

Date: 22 September 2023
Orbit: 794 x 979 km, 99.8° (Epoch: 28 November)

Event Time Altitude Azimuth Distance (km) Brightness Sun altitude
Rises 04:33:20 0° 19° (NNE) 3,684 10.3 -20.0°
Reaches altitude 10° 04:37:21 10° 353° (N) 2,744 9.2 -19.5°
Maximum altitude 04:39:52 13° 329° (NNW) 2,540 8.7 -19.2°
Drops below altitude 10° 04:42:23 10° 304° (NW) 2,739 8.6 -18.9°
Enters shadow 04:43:18 - 297° (WNW) 2,900 8.7 -18.8°
